Location: Bacharowice
(49.9333°N, 19.5833°E)
Time: 10:31:35
(UTC+00:00)

Envisat - Pass Details

Date: 10 October 2022
Orbit: 763 x 765 km, 98.2° (Epoch: 01 December)

Event Time Altitude Azimuth Distance (km) Brightness Sun altitude
Rises 02:55:10 0° 16° (NNE) 3,246 6.7 -20.0°
Reaches altitude 10° 02:57:31 10° 20° (NNE) 2,315 5.9 -19.6°
Maximum altitude 03:02:35 64° 102° (ESE) 852 3.4 -18.8°
Drops below altitude 10° 03:07:36 10° 183° (S) 2,297 5.3 -18.0°
Sets 03:09:55 0° 187° (S) 3,218 6.1 -17.7°
